Lid_Strength_Index
10 10 10 9 9 9 9 10 11 13 12 11 11 9 9 9 8 7 6 6 5 5 5 5 4 4 4 4 4 4 4 4 3 3 3 3 3 3
10 10 10 10 10 10 10 10 10 11 13 11 12 10 10 10 9 9 9 7 6 5 5 5 4 4 4 4 4 5 5 5 3 3 3 3 4 3
10 10 10 10 10 10 10 10 10 10 12 11 10 11 11 11 10 9 9 9 9 7 5 5 5 4 4 5 5 5 6 5 4 4 4 4 4 3
10 10 10 10 10 10 10 10 10 10 11 12 10 11 12 10 10 10 10 10 10 8 7 5 5 5 4 5 5 6 6 6 5 5 5 5 4 4
9 9 9 9 10 10 10 10 10 10 10 11 11 10 10 11 11 11 10 10 10 9 8 6 5 4 5 5 6 6 6 7 6 6 5 5 5 5
9 9 9 9 9 9 9 10 10 10 10 10 11 11 10 11 11 11 11 11 10 10 9 8 7 6 5 5 6 7 7 7 7 6 5 6 6 5
9 9 8 8 7 7 9 9 9 10 10 11 11 11 11 11 13 11 11 11 11 10 10 10 9 8 7 6 7 8 7 8 6 5 5 6 6 6
8 8 8 7 6 5 5 6 8 9 10 10 10 11 10 10 10 12 12 12 13 10 11 11 10 10 9 9 8 8 8 7 6 6 6 6 6 6
8 8 8 8 6 7 5 4 4 4 6 8 10 9 10 10 10 14 14 13 12 11 11 11 11 10 9 9 8 8 8 7 7 7 7 7 7 7
7 7 7 7 7 6 6 6 6 6 5 4 6 7 7 8 9 10 12 14 12 12 11 12 11 11 11 10 9 8 8 8 8 7 7 7 7 7
6 5 5 5 5 5 5 6 7 7 6 4 4 4 4 5 7 10 12 13 14 13 12 12 12 11 11 11 10 9 8 8 8 8 8 8 8 8
6 5 4 4 4 4 5 5 6 7 7 7 7 6 4 5 4 9 10 12 12 13 11 13 13 12 12 12 11 10 8 9 9 8 8 9 8 8
7 5 5 4 4 3 3 4 5 5 5 6 7 8 8 8 8 7 10 10 10 11 10 11 12 13 12 12 12 11 10 10 9 9 10 10 9 9
5 4 4 3 3 3 3 2 2 3 4 5 7 8 9 9 9 8 8 9 8 9 9 10 12 12 13 13 13 12 11 11 10 9 9 10 10 10
3 3 3 3 3 3 3 3 3 3 4 6 6 7 8 8 8 9 8 9 8 9 10 10 10 11 11 12 12 13 12 11 11 10 9 10 10 10
4 4 4 4 4 4 5 5 5 5 5 6 6 5 6 8 9 10 10 10 11 11 11 10 12 11 11 12 12 12 12 12 12 10 10 10 10 10
4 5 6 6 7 6 6 7 6 6 6 6 6 6 8 9 10 10 10 11 11 11 12 12 11 12 11 12 13 12 12 12 12 11 11 10 10 10
6 8 8 7 7 6 6 6 6 6 6 6 6 7 8 9 9 10 10 11 11 11 11 11 13 13 13 12 11 11 12 12 12 11 11 11 11 10
10 9 8 8 8 8 7 7 8 7 6 6 6 6 7 8 8 10 10 11 11 11 11 10 12 13 14 14 11 10 12 12 12 13 11 11 11 10
9 9 9 9 9 9 9 8 8 7 7 7 7 6 6 7 9 9 10 11 11 11 12 12 11 12 12 12 12 12 11 11 12 13 12 11 10 11
9 9 9 9 9 8 8 8 8 8 8 8 8 7 7 7 8 8 9 9 10 11 12 13 11 10 10 11 13 13 12 12 11 12 12 12 12 11
9 9 8 8 8 8 8 8 8 8 8 8 8 7 7 7 7 8 8 10 10 11 11 11 11 11 12 13 13 13 13 12 12 13 12 11 11 13
9 9 8 8 8 8 8 8 9 10 9 9 9 9 8 7 7 7 8 8 10 10 11 13 12 12 12 13 12 13 13 13 13 13 13 12 11 11